EDRS-C

Last updated on Thu Oct 30 2025 00:02:51 GMT+0000 (Coordinated Universal Time)

1 44475U 19049A 25302.53377932 -.00000252 00000+0 00000+0 0 9996 2 44475 0.0446 93.1701 0000638 106.1171 173.5322 1.00271759 22891
UTC large
Height (km)
Speed (km/s)
/
Latitude / Longitude
Inclination (degrees)
Orbital Period (minutes)
Azimuth
Elevation
Range (km)
Doppler Factor

Next 0 passes for location: London (51.5072 / 0.1276)

Sorry there are no passes over London.